Fort Lauderdale, FL

6:58 AM EDT on March 30, 2017 (GMT -0400)
Fort Lauderdale Executive

Weather History for KFXE - November, 2012

Change the Weather History Date:

Wednesday, November 7, 2012

  Actual Average Record
Temperature  
Mean Temperature 66 °F -  
Max Temperature 73 °F 82 °F 90 °F (1975)
Min Temperature 59 °F 65 °F 48 °F (1954)
Cooling Degree Days 2    
Growing Degree Days 16 (Base 50)    
Moisture  
Dew Point 55 °F    
Average Humidity 68    
Maximum Humidity 90    
Minimum Humidity 48    
Precipitation  
Precipitation 0.00 in - - ()
Sea Level Pressure  
Sea Level Pressure 29.92 in    
Wind  
Wind Speed 7 mph (WNW)    
Max Wind Speed 15 mph    
Max Gust Speed 25 mph    
Visibility 10 miles    
Events      
Averages and records for this station are not official NWS values.
T = Trace of Precipitation, MM = Missing Value Source: NWS Daily Summary

Daily Weather History Graph

Daily Weather History Graph

Search for Another Location

Airport or City:

Trip Planner

Search our weather history database for the weather conditions in past years. The results will help you decide how hot, cold, wet, or windy it might be!

Date:

Astronomy

Nov. 07, 2012 Rise Set
Actual Time 6:33 AM EST 5:34 PM EST
Civil Twilight 6:09 AM EST 5:58 PM EST
Nautical Twilight 5:42 AM EST 6:26 PM EST
Astronomical Twilight 5:14 AM EST 6:53 PM EST
Moon 12:05 AM EST (11/7) 1:07 PM EST (11/7)
Length of Visible Light 11h 48m
Length of Day
11h 00m
Last Quarter, 43% of the Moon is Illuminated
Nov 7
Last Quarter
Nov 13
New
Nov 20
First Quarter
Nov 28
Full
Dec 6
Last Quarter

Hourly Weather History & Observations

Time (EST) Temp. Dew Point Humidity Pressure Visibility Wind Dir Wind Speed Gust Speed Precip Events Conditions
12:53 AM 66.9 °F 64.0 °F 90% 29.87 in 10.0 mi WSW 5.8 mph - N/A   Clear
1:53 AM 66.0 °F 63.0 °F 90% 29.86 in 10.0 mi West 4.6 mph - N/A   Partly Cloudy
2:53 AM 68.0 °F 64.9 °F 90% 29.86 in 10.0 mi WNW 5.8 mph - N/A   Mostly Cloudy
3:53 AM 66.0 °F 63.0 °F 90% 29.87 in 10.0 mi WNW 8.1 mph - N/A   Scattered Clouds
4:53 AM 64.9 °F 60.1 °F 84% 29.88 in 10.0 mi WNW 6.9 mph - N/A   Partly Cloudy
5:53 AM 63.0 °F 59.0 °F 87% 29.90 in 10.0 mi WNW 4.6 mph - N/A   Scattered Clouds
6:53 AM 62.1 °F 59.0 °F 90% 29.91 in 10.0 mi WNW 3.5 mph - N/A   Clear
7:53 AM 64.9 °F 57.9 °F 78% 29.94 in 10.0 mi WNW 8.1 mph - N/A   Clear
8:53 AM 66.0 °F 55.9 °F 70% 29.95 in 10.0 mi NW 8.1 mph 17.3 mph N/A   Partly Cloudy
9:53 AM 69.1 °F 54.0 °F 58% 29.96 in 10.0 mi NW 13.8 mph 23.0 mph N/A   Partly Cloudy
10:53 AM 71.1 °F 52.0 °F 51% 29.94 in 10.0 mi NW 11.5 mph 18.4 mph N/A   Clear
11:53 AM 73.0 °F 52.0 °F 48% 29.92 in 10.0 mi WNW 11.5 mph - N/A   Clear
12:53 PM 71.1 °F 54.0 °F 55% 29.90 in 10.0 mi NW 10.4 mph - N/A   Scattered Clouds
1:53 PM 71.1 °F 54.0 °F 55% 29.89 in 10.0 mi WNW 11.5 mph 21.9 mph N/A   Scattered Clouds
2:53 PM 72.0 °F 53.1 °F 51% 29.88 in 10.0 mi WNW 15.0 mph 25.3 mph N/A   Scattered Clouds
3:53 PM 72.0 °F 52.0 °F 49% 29.88 in 10.0 mi WNW 12.7 mph 20.7 mph N/A   Scattered Clouds
4:53 PM 70.0 °F 51.1 °F 51% 29.88 in 10.0 mi WNW 11.5 mph 20.7 mph N/A   Partly Cloudy
5:53 PM 68.0 °F 52.0 °F 56% 29.90 in 10.0 mi NNW 6.9 mph - N/A   Clear
6:53 PM 66.0 °F 52.0 °F 60% 29.92 in 10.0 mi NNW 4.6 mph - N/A   Clear
7:53 PM 64.9 °F 51.1 °F 61% 29.95 in 10.0 mi WNW 4.6 mph - N/A   Clear
8:53 PM 63.0 °F 50.0 °F 63% 29.98 in 10.0 mi WNW 8.1 mph - N/A   Clear
9:53 PM 61.0 °F 50.0 °F 67% 29.99 in 10.0 mi NW 6.9 mph - N/A   Clear
10:53 PM 60.1 °F 50.0 °F 69% 30.00 in 10.0 mi NW 6.9 mph - N/A   Clear
11:53 PM 59.0 °F 50.0 °F 72% 29.99 in 10.0 mi NW 4.6 mph - N/A   Clear